| time (UTC) | temp C | wind direction | speed KPH | gust KPH | rain 1hr cm | rain 24hr cm | rain mn cm | humidity % | barometer mb |
| 20260508203317 | 22 | 342 | 4.8 | 4.8 | 0.00 | 0.00 | 0.00 | 35 | 1055.2 |
| 20260508202316 | 21 | 259 | 0.0 | 9.7 | 0.00 | 0.00 | 0.00 | 35 | 1055.3 |
| 20260508201316 | 21 | 11 | 3.2 | 8.0 | 0.00 | 0.00 | 0.00 | 42 | 1055.7 |
| 20260508200315 | 20 | 17 | 8.0 | 9.7 | 0.00 | 0.00 | 0.00 | 38 | 1056.1 |
| 20260508195314 | 21 | 344 | 9.7 | 17.7 | 0.00 | 0.00 | 0.00 | 36 | 1056.6 |
| 20260508194313 | 21 | 270 | 0.0 | 8.0 | 0.00 | 0.00 | 0.00 | 38 | 1056.6 |
| 20260508193312 | 20 | 2 | 6.4 | 8.0 | 0.00 | 0.00 | 0.00 | 38 | 1056.7 |
| 20260508192312 | 20 | 254 | 12.9 | 16.1 | 0.00 | 0.00 | 0.00 | 38 | 1056.7 |
| 20260508191306 | 19 | 345 | 3.2 | 9.7 | 0.00 | 0.00 | 0.00 | 42 | 1056.9 |
| 20260508190305 | 20 | 54 | 12.9 | 12.9 | 0.00 | 0.00 | 0.00 | 43 | 1056.9 |
| 20260508185306 | 19 | 65 | 14.5 | 14.5 | 0.00 | 0.00 | 0.00 | 50 | 1057.2 |
| 20260508184305 | 20 | 299 | 3.2 | 6.4 | 0.00 | 0.00 | 0.00 | 49 | 1057.5 |
| 20260508183304 | 20 | 302 | 4.8 | 8.0 | 0.00 | 0.00 | 0.00 | 45 | 1057.4 |
| 20260508182306 | 19 | 105 | 6.4 | 9.7 | 0.00 | 0.00 | 0.00 | 45 | 1057.6 |
| 20260508181302 | 20 | 345 | 3.2 | 4.8 | 0.00 | 0.00 | 0.00 | 47 | 1057.7 |
| 20260508180301 | 19 | 325 | 0.0 | 4.8 | 0.00 | 0.00 | 0.00 | 47 | 1057.8 |
| 20260508175300 | 18 | 75 | 4.8 | 8.0 | 0.00 | 0.00 | 0.00 | 50 | 1057.8 |
| 20260508174255 | 18 | 332 | 0.0 | 3.2 | 0.00 | 0.00 | 0.00 | 50 | 1057.9 |
| 20260508173254 | 17 | 74 | 6.4 | 14.5 | 0.00 | 0.00 | 0.00 | 45 | 1058.4 |
| 20260508172254 | 17 | 353 | 4.8 | 12.9 | 0.00 | 0.00 | 0.00 | 44 | 1058.7 |
| 20260508171252 | 18 | 99 | 0.0 | 4.8 | 0.00 | 0.00 | 0.00 | 46 | 1058.7 |
| 20260508170247 | 18 | 348 | 4.8 | 8.0 | 0.00 | 0.00 | 0.00 | 45 | 1059.0 |
| 20260508165247 | 18 | 29 | 4.8 | 4.8 | 0.00 | 0.00 | 0.00 | 52 | 1059.2 |
| 20260508164245 | 16 | 63 | 0.0 | 8.0 | 0.00 | 0.00 | 0.00 | 46 | 1059.3 |
| 20260508163241 | 16 | 53 | 0.0 | 8.0 | 0.00 | 0.00 | 0.00 | 49 | 1059.5 |
| 20260508162239 | 16 | 99 | 6.4 | 9.7 | 0.00 | 0.00 | 0.00 | 46 | 1059.7 |
| 20260508161240 | 16 | 55 | 11.3 | 12.9 | 0.00 | 0.00 | 0.00 | 48 | 1059.7 |
| 20260508160236 | 15 | 46 | 6.4 | 14.5 | 0.00 | 0.00 | 0.00 | 49 | 1060.2 |
| 20260508155235 | 15 | 36 | 3.2 | 11.3 | 0.00 | 0.00 | 0.00 | 50 | 1060.2 |
| 20260508154235 | 15 | 63 | 0.0 | 6.4 | 0.00 | 0.00 | 0.00 | 47 | 1060.5 |
| 20260508153234 | 16 | 29 | 0.0 | 9.7 | 0.00 | 0.00 | 0.00 | 51 | 1060.5 |
| 20260508152232 | 16 | 18 | 8.0 | 8.0 | 0.00 | 0.00 | 0.00 | 59 | 1060.4 |
| 20260508151231 | 15 | 139 | 3.2 | 8.0 | 0.00 | 0.00 | 0.00 | 55 | 1060.5 |
| 20260508150230 | 16 | 243 | 3.2 | 9.7 | 0.00 | 0.00 | 0.00 | 66 | 1060.6 |
| 20260508145228 | 15 | 24 | 4.8 | 6.4 | 0.00 | 0.00 | 0.00 | 74 | 1060.7 |
| 20260508144223 | 15 | 348 | 0.0 | 6.4 | 0.00 | 0.00 | 0.00 | 78 | 1060.6 |
| 20260508143218 | 14 | 23 | 3.2 | 6.4 | 0.00 | 0.00 | 0.00 | 77 | 1060.6 |
| 20260508142217 | 14 | 339 | 6.4 | 8.0 | 0.00 | 0.00 | 0.00 | 79 | 1060.5 |
| 20260508141216 | 13 | 270 | 0.0 | 3.2 | 0.00 | 0.00 | 0.00 | 79 | 1060.7 |
| 20260508140215 | 12 | 287 | 3.2 | 6.4 | 0.00 | 0.00 | 0.00 | 82 | 1060.6 |
| 20260508135213 | 12 | 79 | 4.8 | 6.4 | 0.00 | 0.00 | 0.00 | 82 | 1060.8 |
| 20260508134213 | 12 | 24 | 4.8 | 8.0 | 0.00 | 0.00 | 0.00 | 80 | 1060.6 |
| 20260508133207 | 11 | 65 | 9.7 | 9.7 | 0.00 | 0.00 | 0.00 | 84 | 1060.7 |
| 20260508132207 | 12 | 37 | 6.4 | 6.4 | 0.00 | 0.00 | 0.00 | 85 | 1060.6 |
| 20260508131205 | 11 | 54 | 4.8 | 6.4 | 0.00 | 0.00 | 0.00 | 86 | 1060.6 |
| 20260508130205 | 10 | 54 | 8.0 | 8.0 | 0.00 | 0.00 | 0.00 | 87 | 1060.5 |
| 20260508125203 | 10 | 64 | 6.4 | 8.0 | 0.00 | 0.00 | 0.00 | 88 | 1060.5 |
| 20260508124158 | 10 | 74 | 1.6 | 1.6 | 0.00 | 0.00 | 0.00 | 93 | 1060.5 |
| 20260508123154 | 8 | 90 | 3.2 | 3.2 | 0.00 | 0.00 | 0.00 | 99 | 1060.3 |
| 20260508122153 | 6 | 82 | 4.8 | 8.0 | 0.00 | 0.00 | 0.00 | 99 | 1060.3 |
| 20260508121149 | 6 | 82 | 3.2 | 6.4 | 0.00 | 0.00 | 0.00 | 99 | 1060.4 |
| 20260508120144 | 5 | 116 | 4.8 | 8.0 | 0.00 | 0.00 | 0.00 | 99 | 1060.2 |
| 20260508115144 | 4 | 86 | 6.4 | 6.4 | 0.00 | 0.00 | 0.00 | 99 | 1060.0 |
| 20260508114143 | 3 | 81 | 4.8 | 8.0 | 0.00 | 0.00 | 0.00 | 99 | 1059.9 |
| 20260508113138 | 3 | 116 | 6.4 | 8.0 | 0.00 | 0.00 | 0.00 | 99 | 1059.9 |
| 20260508112137 | 3 | 77 | 3.2 | 6.4 | 0.00 | 0.00 | 0.00 | 99 | 1059.9 |
| 20260508111137 | 3 | 82 | 3.2 | 4.8 | 0.00 | 0.00 | 0.00 | 99 | 1059.8 |
| 20260508110136 | 2 | 57 | 3.2 | 3.2 | 0.05 | 0.00 | 0.00 | 99 | 1059.6 |
| 20260508105134 | 2 | 66 | 0.0 | 1.6 | 0.00 | 0.00 | 0.00 | 99 | 1059.5 |
| 20260508104134 | 3 | 112 | 4.8 | 6.4 | 0.00 | 0.00 | 0.00 | 99 | 1059.3 |
| 20260508103129 | 3 | 98 | 3.2 | 6.4 | 0.00 | 0.00 | 0.00 | 99 | 1059.0 |
| 20260508102124 | 3 | 90 | 6.4 | 11.3 | 0.00 | 0.00 | 0.00 | 99 | 1058.9 |
| 20260508101124 | 3 | 90 | 4.8 | 9.7 | 0.00 | 0.00 | 0.00 | 99 | 1058.9 |
| 20260508100119 | 4 | 107 | 8.0 | 9.7 | 0.00 | 0.00 | 0.00 | 99 | 1058.8 |
| 20260508095118 | 4 | 121 | 4.8 | 8.0 | 0.00 | 0.00 | 0.00 | 99 | 1058.8 |
| 20260508094117 | 4 | 90 | 3.2 | 6.4 | 0.00 | 0.00 | 0.00 | 99 | 1058.8 |
| 20260508093112 | 4 | 98 | 4.8 | 8.0 | 0.00 | 0.00 | 0.00 | 99 | 1058.8 |
| 20260508092108 | 4 | 95 | 4.8 | 8.0 | 0.00 | 0.00 | 0.00 | 99 | 1058.8 |
| 20260508091107 | 4 | 73 | 0.0 | 4.8 | 0.00 | 0.00 | 0.00 | 99 | 1058.9 |
| 20260508085056 | 3 | 66 | 0.0 | 1.6 | 0.00 | 0.00 | 0.00 | 99 | 1058.7 |
| 20260508084056 | 4 | 328 | 0.0 | 0.0 | 0.00 | 0.00 | 0.00 | 99 | 1058.7 |
| 20260508083055 | 4 | 90 | 1.6 | 1.6 | 0.00 | 0.00 | 0.00 | 99 | 1058.7 |
| 20260508082054 | 4 | 48 | 3.2 | 3.2 | 0.00 | 0.00 | 0.00 | 99 | 1058.6 |
| 20260508081053 | 5 | 80 | 3.2 | 3.2 | 0.00 | 0.00 | 0.00 | 99 | 1058.5 |
| 20260508080049 | 5 | 67 | 4.8 | 6.4 | 0.00 | 0.00 | 0.00 | 99 | 1058.2 |
| 20260508075048 | 5 | 100 | 4.8 | 8.0 | 0.00 | 0.00 | 0.00 | 99 | 1058.5 |
| 20260508074043 | 5 | 96 | 4.8 | 6.4 | 0.00 | 0.00 | 0.00 | 99 | 1058.6 |
| 20260508073044 | 5 | 99 | 4.8 | 8.0 | 0.00 | 0.00 | 0.00 | 99 | 1058.2 |
| 20260508072042 | 5 | 120 | 8.0 | 8.0 | 0.00 | 0.00 | 0.00 | 99 | 1058.6 |
| 20260508071038 | 5 | 82 | 4.8 | 6.4 | 0.00 | 0.00 | 0.00 | 99 | 1058.4 |
| 20260508070033 | 5 | 65 | 6.4 | 8.0 | 0.00 | 0.00 | 0.00 | 99 | 1058.5 |
| 20260508065029 | 5 | 49 | 0.0 | 1.6 | 0.00 | 0.00 | 0.00 | 99 | 1058.6 |
| 20260508064024 | 5 | 294 | 0.0 | 1.6 | 0.00 | 0.00 | 0.00 | 99 | 1058.7 |
| 20260508063019 | 5 | 345 | 0.0 | 0.0 | 0.00 | 0.00 | 0.00 | 99 | 1058.7 |
| 20260508062018 | 5 | 23 | 0.0 | 3.2 | 0.00 | 0.00 | 0.00 | 99 | 1058.7 |
| 20260508061013 | 5 | 55 | 3.2 | 3.2 | 0.00 | 0.00 | 0.00 | 99 | 1058.4 |
| 20260508060014 | 5 | 49 | 0.0 | 3.2 | 0.00 | 0.00 | 0.00 | 99 | 1058.7 |
| 20260508055012 | 5 | 32 | 1.6 | 3.2 | 0.00 | 0.00 | 0.00 | 99 | 1058.6 |
| 20260508054011 | 6 | 47 | 4.8 | 4.8 | 0.00 | 0.00 | 0.00 | 99 | 1058.5 |
| 20260508053006 | 6 | 106 | 3.2 | 4.8 | 0.00 | 0.00 | 0.00 | 99 | 1058.6 |
| 20260508052006 | 7 | 90 | 3.2 | 3.2 | 0.00 | 0.00 | 0.00 | 99 | 1058.7 |
| 20260508051003 | 6 | 90 | 3.2 | 3.2 | 0.00 | 0.00 | 0.00 | 99 | 1058.6 |
| 20260508050003 | 6 | 40 | 1.6 | 4.8 | 0.00 | 0.00 | 0.00 | 99 | 1058.2 |
| 20260508044957 | 6 | 68 | 4.8 | 4.8 | 0.00 | 0.00 | 0.00 | 99 | 1058.5 |
| 20260508043955 | 7 | 40 | 1.6 | 3.2 | 0.00 | 0.00 | 0.00 | 99 | 1058.5 |
| 20260508042954 | 7 | 75 | 1.6 | 3.2 | 0.00 | 0.00 | 0.00 | 99 | 1058.1 |
| 20260508041949 | 7 | 63 | 1.6 | 3.2 | 0.00 | 0.00 | 0.00 | 99 | 1058.1 |
| 20260508040949 | 7 | 66 | 0.0 | 0.0 | 0.00 | 0.00 | 0.00 | 99 | 1058.1 |
| 20260508035944 | 7 | 337 | 0.0 | 0.0 | 0.00 | 0.28 | 0.28 | 99 | 1057.9 |
| 20260508034943 | 7 | 54 | 1.6 | 3.2 | 0.00 | 0.28 | 0.28 | 99 | 1057.9 |
| 20260508033942 | 8 | 57 | 4.8 | 4.8 | 0.00 | 0.28 | 0.28 | 99 | 1057.8 |
| 20260508032938 | 8 | 81 | 4.8 | 6.4 | 0.00 | 0.28 | 0.28 | 99 | 1057.6 |
| 20260508031937 | 8 | 78 | 4.8 | 4.8 | 0.00 | 0.28 | 0.28 | 99 | 1057.7 |
| 20260508030936 | 9 | 81 | 4.8 | 4.8 | 0.00 | 0.28 | 0.28 | 99 | 1057.8 |
| 20260508025936 | 9 | 90 | 4.8 | 4.8 | 0.00 | 0.28 | 0.28 | 99 | 1057.8 |
| 20260508024936 | 9 | 49 | 1.6 | 3.2 | 0.00 | 0.28 | 0.28 | 99 | 1057.5 |
| 20260508023935 | 9 | 32 | 1.6 | 3.2 | 0.00 | 0.28 | 0.28 | 99 | 1057.4 |
| 20260508022935 | 10 | 19 | 3.2 | 3.2 | 0.00 | 0.28 | 0.28 | 99 | 1057.1 |
| 20260508021932 | 10 | 8 | 0.0 | 3.2 | 0.00 | 0.28 | 0.28 | 99 | 1057.1 |
| 20260508020930 | 10 | 36 | 3.2 | 4.8 | 0.00 | 0.28 | 0.28 | 99 | 1057.1 |
| 20260508015925 | 10 | 49 | 4.8 | 6.4 | 0.00 | 0.28 | 0.28 | 99 | 1057.0 |
| 20260508014925 | 10 | 270 | 0.0 | 1.6 | 0.00 | 0.28 | 0.28 | 99 | 1056.9 |
| 20260508013923 | 11 | 306 | 0.0 | 1.6 | 0.00 | 0.28 | 0.28 | 99 | 1056.6 |
| 20260508012923 | 11 | 255 | 4.8 | 4.8 | 0.00 | 0.28 | 0.28 | 99 | 1056.4 |
| 20260508011923 | 11 | 308 | 0.0 | 3.2 | 0.00 | 0.28 | 0.28 | 98 | 1056.4 |
| 20260508010918 | 11 | 294 | 0.0 | 1.6 | 0.00 | 0.28 | 0.28 | 98 | 1056.2 |
| 20260508005918 | 11 | 270 | 1.6 | 3.2 | 0.00 | 0.28 | 0.28 | 97 | 1056.1 |
| 20260508004917 | 12 | 270 | 0.0 | 0.0 | 0.00 | 0.28 | 0.28 | 97 | 1056.0 |
| 20260508003916 | 12 | 340 | 1.6 | 1.6 | 0.00 | 0.28 | 0.28 | 96 | 1055.8 |
| 20260508002910 | 12 | 270 | 0.0 | 3.2 | 0.00 | 0.28 | 0.28 | 95 | 1055.7 |
| 20260508001908 | 12 | 270 | 0.0 | 1.6 | 0.00 | 0.28 | 0.28 | 94 | 1055.7 |
| 20260508000907 | 13 | 105 | 0.0 | 0.0 | 0.00 | 0.28 | 0.28 | 92 | 1055.3 |
| 20260507235906 | 13 | 331 | 0.0 | 1.6 | 0.00 | 0.28 | 0.28 | 89 | 1055.5 |
| 20260507234906 | 15 | 40 | 3.2 | 3.2 | 0.00 | 0.28 | 0.28 | 86 | 1055.3 |
| 20260507233905 | 16 | 273 | 4.8 | 4.8 | 0.00 | 0.28 | 0.28 | 81 | 1055.2 |
| 20260507232901 | 17 | 0 | 0.0 | 3.2 | 0.00 | 0.28 | 0.28 | 75 | 1055.4 |
| 20260507231900 | 17 | 63 | 0.0 | 3.2 | 0.00 | 0.28 | 0.28 | 79 | 1055.4 |
| 20260507230859 | 15 | 180 | 0.0 | 1.6 | 0.00 | 0.28 | 0.28 | 83 | 1055.7 |
| 20260507225856 | 15 | 90 | 0.0 | 0.0 | 0.00 | 0.28 | 0.28 | 84 | 1055.7 |
| 20260507224854 | 15 | 81 | 0.0 | 0.0 | 0.00 | 0.28 | 0.28 | 83 | 1055.8 |
| 20260507223853 | 15 | 99 | 0.0 | 1.6 | 0.00 | 0.28 | 0.28 | 79 | 1055.5 |
| 20260507222853 | 16 | 114 | 0.0 | 0.0 | 0.00 | 0.28 | 0.28 | 79 | 1055.8 |
| 20260507221852 | 16 | 311 | 0.0 | 4.8 | 0.00 | 0.28 | 0.28 | 70 | 1055.4 |
| 20260507220851 | 18 | 281 | 3.2 | 3.2 | 0.00 | 0.28 | 0.28 | 63 | 1055.4 |
| 20260507215845 | 17 | 90 | 0.0 | 4.8 | 0.00 | 0.28 | 0.28 | 75 | 1055.3 |
| 20260507214839 | 16 | 270 | 0.0 | 6.4 | 0.00 | 0.28 | 0.28 | 69 | 1055.3 |
| 20260507213837 | 17 | 21 | 3.2 | 4.8 | 0.00 | 0.28 | 0.28 | 66 | 1055.1 |
| 20260507212837 | 16 | 80 | 0.0 | 4.8 | 0.00 | 0.28 | 0.28 | 77 | 1054.9 |
| 20260507211836 | 15 | 61 | 4.8 | 4.8 | 0.00 | 0.28 | 0.28 | 71 | 1055.0 |
| 20260507210835 | 16 | 29 | 0.0 | 3.2 | 0.00 | 0.28 | 0.28 | 71 | 1054.8 |
| 20260507205835 | 16 | 14 | 0.0 | 8.0 | 0.00 | 0.28 | 0.28 | 72 | 1054.9 |
| 20260507204834 | 17 | 132 | 0.0 | 4.8 | 0.00 | 0.28 | 0.28 | 71 | 1054.8 |
| 20260507203829 | 15 | 270 | 0.0 | 3.2 | 0.00 | 0.28 | 0.28 | 82 | 1055.0 |